Time,TemperatureF,DewpointF,PressureIn,WindDirection,WindDirectionDegrees,WindSpeedMPH,WindSpeedGustMPH,Humidity,HourlyPrecipIn,Conditions,Clouds,dailyrainin,SoftwareType,DateUTC
2013-03-23 00:02:00,25.0,19.8,30.06,NE,48,6.2,8.5,80,0.00,,,0.00,CWS Microserver 1.4,2013-03-23 05:02:00,
2013-03-23 00:07:00,25.0,19.5,30.06,NE,45,5.6,7.8,79,0.00,,,0.00,CWS Microserver 1.4,2013-03-23 05:07:00,
2013-03-23 00:12:00,25.0,19.9,30.06,NE,51,5.4,8.0,80,0.00,,,0.00,CWS Microserver 1.4,2013-03-23 05:12:00,
2013-03-23 00:17:00,24.8,19.9,30.06,ENE,66,3.6,8.0,81,0.00,,,0.00,CWS Microserver 1.4,2013-03-23 05:17:00,
2013-03-23 00:22:00,24.7,19.8,30.05,NE,51,5.8,7.2,81,0.00,,,0.00,CWS Microserver 1.4,2013-03-23 05:22:00,
2013-03-23 00:27:00,24.5,19.9,30.04,ENE,65,5.6,7.8,82,0.00,,,0.00,CWS Microserver 1.4,2013-03-23 05:27:00,
2013-03-23 00:32:00,24.5,20.0,30.04,ENE,69,5.6,7.8,82,0.00,,,0.00,CWS Microserver 1.4,2013-03-23 05:32:00,
2013-03-23 00:37:00,24.5,20.1,30.04,ENE,71,5.4,8.7,82,0.00,,,0.00,CWS Microserver 1.4,2013-03-23 05:37:00,
2013-03-23 00:42:00,24.5,19.8,30.04,ENE,65,4.7,8.7,82,0.00,,,0.00,CWS Microserver 1.4,2013-03-23 05:42:00,
2013-03-23 00:47:00,24.5,19.9,30.04,ENE,62,3.3,8.2,82,0.00,,,0.00,CWS Microserver 1.4,2013-03-23 05:47:00,
2013-03-23 00:52:00,24.3,20.0,30.05,NE,47,3.7,7.3,83,0.00,,,0.00,CWS Microserver 1.4,2013-03-23 05:52:00,
2013-03-23 00:57:00,24.5,20.0,30.06,NNE,29,3.1,4.6,82,0.00,,,0.00,CWS Microserver 1.4,2013-03-23 05:57:00,
2013-03-23 01:02:00,24.3,19.5,30.06,NNW,329,3.0,4.6,81,0.00,,,0.00,CWS Microserver 1.4,2013-03-23 06:02:00,
2013-03-23 01:07:00,24.3,19.8,30.06,NNE,24,2.9,3.5,82,0.00,,,0.00,CWS Microserver 1.4,2013-03-23 06:07:00,
2013-03-23 01:12:00,23.9,19.5,30.06,NE,35,3.3,4.3,83,0.00,,,0.00,CWS Microserver 1.4,2013-03-23 06:12:00,
2013-03-23 01:17:00,24.1,19.7,30.06,North,3,3.3,4.3,83,0.00,,,0.00,CWS Microserver 1.4,2013-03-23 06:17:00,
2013-03-23 01:22:00,24.1,19.5,30.07,NNW,345,2.3,4.4,82,0.00,,,0.00,CWS Microserver 1.4,2013-03-23 06:22:00,
2013-03-23 01:27:00,23.9,18.9,30.08,NW,316,3.6,4.4,81,0.00,,,0.00,CWS Microserver 1.4,2013-03-23 06:27:00,
2013-03-23 01:32:00,24.1,19.1,30.07,North,355,3.3,4.4,80,0.00,,,0.00,CWS Microserver 1.4,2013-03-23 06:32:00,
2013-03-23 01:37:00,24.1,19.2,30.08,NW,323,3.2,4.1,81,0.00,,,0.00,CWS Microserver 1.4,2013-03-23 06:37:00,
2013-03-23 01:42:00,24.1,19.7,30.08,NW,319,3.7,4.4,83,0.00,,,0.00,CWS Microserver 1.4,2013-03-23 06:42:00,
2013-03-23 01:47:00,24.1,19.5,30.07,NNW,342,4.6,5.2,82,0.00,,,0.00,CWS Microserver 1.4,2013-03-23 06:47:00,
2013-03-23 01:52:00,24.1,19.8,30.07,NNW,334,4.8,5.8,83,0.00,,,0.00,CWS Microserver 1.4,2013-03-23 06:52:00,
2013-03-23 01:57:00,23.9,19.9,30.07,NNW,340,5.0,6.1,84,0.00,,,0.00,CWS Microserver 1.4,2013-03-23 06:57:00,
2013-03-23 02:02:00,23.8,19.9,30.07,NNW,347,2.9,6.1,84,0.00,,,0.00,CWS Microserver 1.4,2013-03-23 07:02:00,
2013-03-23 02:07:00,23.6,19.8,30.07,NNE,24,5.4,5.9,85,0.00,,,0.00,CWS Microserver 1.4,2013-03-23 07:07:00,
2013-03-23 02:12:00,23.6,20.0,30.07,North,3,5.0,7.0,86,0.00,,,0.00,CWS Microserver 1.4,2013-03-23 07:12:00,
2013-03-23 02:17:00,23.6,19.9,30.08,North,359,3.1,7.0,85,0.00,,,0.00,CWS Microserver 1.4,2013-03-23 07:17:00,
2013-03-23 02:22:00,23.6,19.8,30.08,NNW,328,3.5,5.8,85,0.00,,,0.00,CWS Microserver 1.4,2013-03-23 07:22:00,
2013-03-23 02:27:00,23.2,19.6,30.09,NW,317,1.7,4.6,85,0.00,,,0.00,CWS Microserver 1.4,2013-03-23 07:27:00,
2013-03-23 02:32:00,23.0,19.7,30.09,NW,323,4.3,4.4,87,0.00,,,0.00,CWS Microserver 1.4,2013-03-23 07:32:00,
2013-03-23 02:37:00,23.2,19.7,30.09,NW,318,2.3,4.7,86,0.00,,,0.00,CWS Microserver 1.4,2013-03-23 07:37:00,
2013-03-23 02:42:00,23.0,19.5,30.08,NW,319,3.7,4.7,86,0.00,,,0.00,CWS Microserver 1.4,2013-03-23 07:42:00,
2013-03-23 02:47:00,23.0,19.5,30.09,NW,317,4.0,4.6,86,0.00,,,0.00,CWS Microserver 1.4,2013-03-23 07:47:00,
2013-03-23 02:52:00,23.0,19.6,30.09,NW,313,4.0,4.7,86,0.00,,,0.00,CWS Microserver 1.4,2013-03-23 07:52:00,
2013-03-23 03:02:00,22.9,19.6,30.09,NW,316,3.9,5.1,87,0.00,,,0.00,CWS Microserver 1.4,2013-03-23 08:02:00,
2013-03-23 03:07:00,22.7,19.4,30.09,NW,307,2.9,5.1,86,0.00,,,0.00,CWS Microserver 1.4,2013-03-23 08:07:00,
2013-03-23 03:12:00,22.5,19.2,30.10,NW,314,2.8,4.2,86,0.00,,,0.00,CWS Microserver 1.4,2013-03-23 08:12:00,
2013-03-23 03:17:00,22.3,18.8,30.10,NW,315,4.6,5.7,86,0.00,,,0.00,CWS Microserver 1.4,2013-03-23 08:17:00,
2013-03-23 03:22:00,22.3,18.6,30.10,NW,323,5.9,7.4,85,0.00,,,0.00,CWS Microserver 1.4,2013-03-23 08:22:00,
2013-03-23 03:27:00,22.3,18.6,30.11,WNW,301,5.0,7.4,85,0.00,,,0.00,CWS Microserver 1.4,2013-03-23 08:27:00,
2013-03-23 03:32:00,22.3,18.3,30.11,NW,312,5.8,7.4,84,0.00,,,0.00,CWS Microserver 1.4,2013-03-23 08:32:00,
2013-03-23 03:37:00,22.3,18.1,30.11,NW,313,3.6,7.4,83,0.00,,,0.00,CWS Microserver 1.4,2013-03-23 08:37:00,
2013-03-23 03:42:00,22.1,17.8,30.11,NW,313,5.1,7.0,83,0.00,,,0.00,CWS Microserver 1.4,2013-03-23 08:42:00,
2013-03-23 03:47:00,22.1,17.7,30.11,NW,315,6.0,7.0,82,0.00,,,0.00,CWS Microserver 1.4,2013-03-23 08:47:00,
2013-03-23 03:52:00,22.1,17.7,30.11,NW,321,4.5,6.8,83,0.00,,,0.00,CWS Microserver 1.4,2013-03-23 08:52:00,
2013-03-23 03:57:00,22.0,17.8,30.11,NW,321,4.4,6.3,83,0.00,,,0.00,CWS Microserver 1.4,2013-03-23 08:57:00,
2013-03-23 04:02:00,22.0,17.9,30.11,NNW,331,2.4,6.8,83,0.00,,,0.00,CWS Microserver 1.4,2013-03-23 09:02:00,
2013-03-23 04:07:00,22.1,18.1,30.11,NW,306,4.2,6.8,84,0.00,,,0.00,CWS Microserver 1.4,2013-03-23 09:07:00,
2013-03-23 04:12:00,22.3,18.1,30.11,NNW,346,6.5,7.6,83,0.00,,,0.00,CWS Microserver 1.4,2013-03-23 09:12:00,
2013-03-23 04:17:00,22.5,18.2,30.11,NNW,343,5.9,7.9,83,0.00,,,0.00,CWS Microserver 1.4,2013-03-23 09:17:00,
2013-03-23 04:22:00,22.5,18.2,30.10,NNW,340,5.4,8.0,83,0.00,,,0.00,CWS Microserver 1.4,2013-03-23 09:22:00,
2013-03-23 04:27:00,22.7,18.3,30.10,North,5,6.9,9.8,82,0.00,,,0.00,CWS Microserver 1.4,2013-03-23 09:27:00,
2013-03-23 04:32:00,22.7,18.1,30.10,NNW,347,5.5,10.0,82,0.00,,,0.00,CWS Microserver 1.4,2013-03-23 09:32:00,
2013-03-23 04:37:00,22.5,17.8,30.10,NNW,327,5.8,10.0,81,0.00,,,0.00,CWS Microserver 1.4,2013-03-23 09:37:00,
2013-03-23 04:42:00,22.5,17.9,30.10,NNW,344,8.1,9.5,82,0.00,,,0.00,CWS Microserver 1.4,2013-03-23 09:42:00,
2013-03-23 04:47:00,22.5,17.8,30.09,North,3,9.7,10.9,81,0.00,,,0.00,CWS Microserver 1.4,2013-03-23 09:47:00,
2013-03-23 04:52:00,22.7,18.1,30.09,North,7,4.1,10.9,82,0.00,,,0.00,CWS Microserver 1.4,2013-03-23 09:52:00,
2013-03-23 04:57:00,22.5,17.8,30.08,NNE,16,10.4,11.0,81,0.00,,,0.00,CWS Microserver 1.4,2013-03-23 09:57:00,
2013-03-23 05:02:00,22.5,17.8,30.08,NNE,17,11.1,11.9,81,0.00,,,0.00,CWS Microserver 1.4,2013-03-23 10:02:00,
2013-03-23 05:07:00,22.3,17.7,30.08,NNE,14,9.8,13.1,82,0.00,,,0.00,CWS Microserver 1.4,2013-03-23 10:07:00,
2013-03-23 05:12:00,22.3,17.4,30.08,NNE,20,9.2,13.1,81,0.00,,,0.00,CWS Microserver 1.4,2013-03-23 10:12:00,
2013-03-23 05:17:00,22.1,17.4,30.08,NNE,16,5.4,12.8,81,0.00,,,0.00,CWS Microserver 1.4,2013-03-23 10:17:00,
2013-03-23 05:22:00,22.1,16.8,30.08,NNE,18,8.2,12.1,79,0.00,,,0.00,CWS Microserver 1.4,2013-03-23 10:22:00,
2013-03-23 05:27:00,22.0,16.8,30.08,NNE,22,9.5,12.1,80,0.00,,,0.00,CWS Microserver 1.4,2013-03-23 10:27:00,
2013-03-23 05:32:00,21.8,16.5,30.08,NNE,19,8.6,12.0,79,0.00,,,0.00,CWS Microserver 1.4,2013-03-23 10:32:00,
2013-03-23 05:37:00,21.6,16.2,30.08,North,8,8.4,12.0,79,0.00,,,0.00,CWS Microserver 1.4,2013-03-23 10:37:00,
2013-03-23 05:47:00,21.4,16.2,30.08,NNE,16,8.8,10.6,80,0.00,,,0.00,CWS Microserver 1.4,2013-03-23 10:47:00,
2013-03-23 05:52:00,21.2,16.2,30.08,NNE,18,9.0,10.6,80,0.00,,,0.00,CWS Microserver 1.4,2013-03-23 10:52:00,
2013-03-23 05:57:00,21.2,16.4,30.08,NNE,14,8.2,9.5,81,0.00,,,0.00,CWS Microserver 1.4,2013-03-23 10:57:00,
2013-03-23 06:02:00,21.2,16.0,30.08,North,4,8.1,10.2,80,0.00,,,0.00,CWS Microserver 1.4,2013-03-23 11:02:00,
2013-03-23 06:07:00,21.4,16.1,30.08,NNE,13,6.8,10.2,79,0.00,,,0.00,CWS Microserver 1.4,2013-03-23 11:07:00,
2013-03-23 06:12:00,21.4,15.7,30.09,North,10,8.7,10.1,78,0.00,,,0.00,CWS Microserver 1.4,2013-03-23 11:12:00,
2013-03-23 06:17:00,21.4,16.5,30.09,NNW,347,6.2,10.1,80,0.00,,,0.00,CWS Microserver 1.4,2013-03-23 11:17:00,
2013-03-23 06:22:00,21.4,15.9,30.09,NNE,17,7.8,9.8,79,0.00,,,0.00,CWS Microserver 1.4,2013-03-23 11:22:00,
2013-03-23 06:27:00,21.4,16.0,30.09,North,1,8.2,9.8,79,0.00,,,0.00,CWS Microserver 1.4,2013-03-23 11:27:00,
2013-03-23 06:32:00,21.4,15.6,30.09,NNE,15,10.2,11.3,77,0.00,,,0.00,CWS Microserver 1.4,2013-03-23 11:32:00,
2013-03-23 06:37:00,21.4,15.9,30.10,NNE,19,7.6,11.3,79,0.00,,,0.00,CWS Microserver 1.4,2013-03-23 11:37:00,
2013-03-23 06:42:00,21.2,15.7,30.10,NNE,18,8.2,10.9,79,0.00,,,0.00,CWS Microserver 1.4,2013-03-23 11:42:00,
2013-03-23 06:47:00,21.2,16.0,30.10,North,358,7.9,10.9,80,0.00,,,0.00,CWS Microserver 1.4,2013-03-23 11:47:00,
2013-03-23 06:52:00,21.4,15.7,30.11,NNW,346,6.9,10.4,78,0.00,,,0.00,CWS Microserver 1.4,2013-03-23 11:52:00,
2013-03-23 06:57:00,21.4,15.6,30.11,North,355,7.3,10.4,78,0.00,,,0.00,CWS Microserver 1.4,2013-03-23 11:57:00,
2013-03-23 07:02:00,21.4,16.3,30.11,North,353,5.7,8.7,80,0.00,,,0.00,CWS Microserver 1.4,2013-03-23 12:02:00,
2013-03-23 07:07:00,21.4,16.2,30.13,NW,320,5.4,8.7,80,0.00,,,0.00,CWS Microserver 1.4,2013-03-23 12:07:00,
2013-03-23 07:12:00,21.6,16.3,30.13,NW,318,5.2,8.4,79,0.00,,,0.00,CWS Microserver 1.4,2013-03-23 12:12:00,
2013-03-23 07:17:00,21.6,15.9,30.13,NW,320,8.0,9.7,78,0.00,,,0.00,CWS Microserver 1.4,2013-03-23 12:17:00,
2013-03-23 07:22:00,21.8,16.4,30.13,NNW,339,5.7,9.7,79,0.00,,,0.00,CWS Microserver 1.4,2013-03-23 12:22:00,
2013-03-23 07:27:00,21.8,16.1,30.13,NNW,336,7.3,8.8,78,0.00,,,0.00,CWS Microserver 1.4,2013-03-23 12:27:00,
2013-03-23 07:32:00,21.8,15.9,30.12,North,354,7.0,8.7,77,0.00,,,0.00,CWS Microserver 1.4,2013-03-23 12:32:00,
2013-03-23 07:37:00,22.0,15.5,30.12,North,359,8.0,9.7,75,0.00,,,0.00,CWS Microserver 1.4,2013-03-23 12:37:00,
2013-03-23 07:42:00,22.1,15.0,30.12,North,5,12.0,12.0,73,0.00,,,0.00,CWS Microserver 1.4,2013-03-23 12:42:00,
2013-03-23 07:47:00,22.1,15.5,30.12,North,10,9.6,12.0,75,0.00,,,0.00,CWS Microserver 1.4,2013-03-23 12:47:00,
2013-03-23 07:52:00,22.1,15.2,30.12,North,4,10.4,12.0,74,0.00,,,0.00,CWS Microserver 1.4,2013-03-23 12:52:00,
2013-03-23 07:57:00,22.3,15.0,30.12,North,358,8.0,10.8,73,0.00,,,0.00,CWS Microserver 1.4,2013-03-23 12:57:00,
2013-03-23 08:02:00,22.3,15.4,30.12,North,352,6.6,10.8,74,0.00,,,0.00,CWS Microserver 1.4,2013-03-23 13:02:00,
2013-03-23 08:07:00,22.3,14.6,30.12,North,351,7.1,8.6,71,0.00,,,0.00,CWS Microserver 1.4,2013-03-23 13:07:00,
2013-03-23 08:17:00,22.5,14.8,30.12,North,357,5.6,9.1,71,0.00,,,0.00,CWS Microserver 1.4,2013-03-23 13:17:00,
2013-03-23 08:22:00,22.5,14.8,30.13,NNW,337,5.4,7.5,72,0.00,,,0.00,CWS Microserver 1.4,2013-03-23 13:22:00,
2013-03-23 08:27:00,22.5,15.2,30.12,North,350,4.7,8.0,73,0.00,,,0.00,CWS Microserver 1.4,2013-03-23 13:27:00,
2013-03-23 08:37:00,22.7,15.4,30.13,NNW,347,4.9,8.2,73,0.00,,,0.00,CWS Microserver 1.4,2013-03-23 13:37:00,
2013-03-23 08:42:00,22.7,14.8,30.13,NNW,346,7.0,8.4,71,0.00,,,0.00,CWS Microserver 1.4,2013-03-23 13:42:00,
2013-03-23 08:47:00,22.9,15.2,30.13,NNW,348,5.7,8.4,71,0.00,,,0.00,CWS Microserver 1.4,2013-03-23 13:47:00,
2013-03-23 08:52:00,23.0,14.1,30.13,North,354,8.1,8.8,68,0.00,,,0.00,CWS Microserver 1.4,2013-03-23 13:52:00,
2013-03-23 09:02:00,23.2,13.0,30.12,North,9,10.9,11.2,64,0.00,,,0.00,CWS Microserver 1.4,2013-03-23 14:02:00,
2013-03-23 09:07:00,23.4,14.0,30.12,NNE,13,7.6,11.3,66,0.00,,,0.00,CWS Microserver 1.4,2013-03-23 14:07:00,
2013-03-23 09:12:00,23.6,13.5,30.12,North,5,8.6,11.8,64,0.00,,,0.00,CWS Microserver 1.4,2013-03-23 14:12:00,
2013-03-23 09:17:00,23.6,13.4,30.13,NNW,332,7.2,11.8,64,0.00,,,0.00,CWS Microserver 1.4,2013-03-23 14:17:00,
2013-03-23 09:22:00,23.6,13.4,30.13,NNW,347,8.0,10.9,64,0.00,,,0.00,CWS Microserver 1.4,2013-03-23 14:22:00,
2013-03-23 09:32:00,23.9,13.1,30.13,North,11,7.6,11.0,62,0.00,,,0.00,CWS Microserver 1.4,2013-03-23 14:32:00,
2013-03-23 09:37:00,24.1,13.2,30.13,North,352,8.3,11.0,62,0.00,,,0.00,CWS Microserver 1.4,2013-03-23 14:37:00,
2013-03-23 09:47:00,24.3,13.2,30.13,North,352,8.7,12.1,62,0.00,,,0.00,CWS Microserver 1.4,2013-03-23 14:47:00,
2013-03-23 09:52:00,24.7,13.0,30.12,North,355,8.8,12.1,60,0.00,,,0.00,CWS Microserver 1.4,2013-03-23 14:52:00,
2013-03-23 10:02:00,24.7,13.3,30.12,North,353,7.6,12.1,61,0.00,,,0.00,CWS Microserver 1.4,2013-03-23 15:02:00,
2013-03-23 10:07:00,25.0,14.0,30.12,NNE,13,7.8,14.8,62,0.00,,,0.00,CWS Microserver 1.4,2013-03-23 15:07:00,
2013-03-23 10:12:00,24.8,13.4,30.12,North,9,9.2,14.8,61,0.00,,,0.00,CWS Microserver 1.4,2013-03-23 15:12:00,
2013-03-23 10:17:00,25.4,13.5,30.12,NNW,347,7.2,12.3,60,0.00,,,0.00,CWS Microserver 1.4,2013-03-23 15:17:00,
2013-03-23 10:22:00,25.4,13.9,30.12,NNE,16,12.3,14.1,61,0.00,,,0.00,CWS Microserver 1.4,2013-03-23 15:22:00,
2013-03-23 10:27:00,25.7,14.0,30.12,North,358,3.6,14.1,60,0.00,,,0.00,CWS Microserver 1.4,2013-03-23 15:27:00,
2013-03-23 10:32:00,25.6,13.4,30.13,NNE,21,11.2,13.7,59,0.00,,,0.00,CWS Microserver 1.4,2013-03-23 15:32:00,
2013-03-23 10:37:00,25.6,13.5,30.13,North,6,12.0,13.6,59,0.00,,,0.00,CWS Microserver 1.4,2013-03-23 15:37:00,
2013-03-23 10:42:00,25.6,13.8,30.13,NNE,18,9.9,13.6,60,0.00,,,0.00,CWS Microserver 1.4,2013-03-23 15:42:00,
2013-03-23 10:47:00,25.9,14.1,30.13,North,349,6.3,13.1,60,0.00,,,0.00,CWS Microserver 1.4,2013-03-23 15:47:00,
2013-03-23 10:57:00,26.3,14.9,30.14,NNE,24,8.8,12.6,61,0.00,,,0.00,CWS Microserver 1.4,2013-03-23 15:57:00,
2013-03-23 11:02:00,26.1,14.1,30.14,NNW,344,7.4,11.0,59,0.00,,,0.00,CWS Microserver 1.4,2013-03-23 16:02:00,
2013-03-23 11:07:00,26.3,14.4,30.14,North,9,5.4,10.2,60,0.00,,,0.00,CWS Microserver 1.4,2013-03-23 16:07:00,
2013-03-23 11:12:00,26.1,13.4,30.14,North,7,6.6,8.6,58,0.00,,,0.00,CWS Microserver 1.4,2013-03-23 16:12:00,
2013-03-23 11:17:00,26.3,14.3,30.15,NE,35,6.1,8.9,59,0.00,,,0.00,CWS Microserver 1.4,2013-03-23 16:17:00,
2013-03-23 11:22:00,26.5,14.1,30.15,NNW,347,5.1,9.1,59,0.00,,,0.00,CWS Microserver 1.4,2013-03-23 16:22:00,
2013-03-23 11:27:00,26.8,13.9,30.15,NNE,15,7.6,9.9,57,0.00,,,0.00,CWS Microserver 1.4,2013-03-23 16:27:00,
2013-03-23 11:32:00,26.6,14.3,30.15,North,5,4.3,9.9,59,0.00,,,0.00,CWS Microserver 1.4,2013-03-23 16:32:00,
2013-03-23 11:37:00,26.5,13.9,30.15,NNE,21,7.6,9.1,58,0.00,,,0.00,CWS Microserver 1.4,2013-03-23 16:37:00,
2013-03-23 11:42:00,26.6,13.5,30.15,North,10,8.5,9.8,57,0.00,,,0.00,CWS Microserver 1.4,2013-03-23 16:42:00,
2013-03-23 11:47:00,26.5,13.8,30.15,NNE,15,5.9,9.8,58,0.00,,,0.00,CWS Microserver 1.4,2013-03-23 16:47:00,
2013-03-23 11:52:00,26.6,14.2,30.14,NNE,17,9.3,11.0,59,0.00,,,0.00,CWS Microserver 1.4,2013-03-23 16:52:00,
2013-03-23 11:57:00,26.6,14.4,30.14,NNE,23,6.9,11.0,59,0.00,,,0.00,CWS Microserver 1.4,2013-03-23 16:57:00,
2013-03-23 12:02:00,27.0,14.2,30.14,North,355,5.8,9.4,58,0.00,,,0.00,CWS Microserver 1.4,2013-03-23 17:02:00,
2013-03-23 12:07:00,27.2,14.9,30.14,NNE,17,9.1,11.0,59,0.00,,,0.00,CWS Microserver 1.4,2013-03-23 17:07:00,
2013-03-23 12:17:00,27.0,14.2,30.13,NNE,21,12.4,14.7,58,0.00,,,0.00,CWS Microserver 1.4,2013-03-23 17:17:00,
2013-03-23 12:22:00,27.4,15.3,30.13,NE,34,9.5,14.7,60,0.00,,,0.00,CWS Microserver 1.4,2013-03-23 17:22:00,
2013-03-23 12:27:00,27.4,15.5,30.13,North,1,7.6,14.1,60,0.00,,,0.00,CWS Microserver 1.4,2013-03-23 17:27:00,
2013-03-23 12:32:00,27.4,15.4,30.13,NNE,18,10.9,14.5,60,0.00,,,0.00,CWS Microserver 1.4,2013-03-23 17:32:00,
2013-03-23 12:37:00,27.5,14.7,30.13,NNE,18,9.8,14.5,58,0.00,,,0.00,CWS Microserver 1.4,2013-03-23 17:37:00,
2013-03-23 12:42:00,27.4,15.3,30.13,North,0,8.4,12.7,60,0.00,,,0.00,CWS Microserver 1.4,2013-03-23 17:42:00,
2013-03-23 12:47:00,27.7,15.3,30.14,NNE,32,5.7,11.2,59,0.00,,,0.00,CWS Microserver 1.4,2013-03-23 17:47:00,
2013-03-23 12:52:00,27.5,14.3,30.14,NE,41,6.8,11.2,57,0.00,,,0.00,CWS Microserver 1.4,2013-03-23 17:52:00,
2013-03-23 12:57:00,27.7,14.7,30.14,North,355,5.5,10.9,57,0.00,,,0.00,CWS Microserver 1.4,2013-03-23 17:57:00,
2013-03-23 13:02:00,27.9,14.3,30.14,NNE,20,4.9,9.0,56,0.00,,,0.00,CWS Microserver 1.4,2013-03-23 18:02:00,
2013-03-23 13:07:00,27.5,14.3,30.14,North,350,5.7,9.0,57,0.00,,,0.00,CWS Microserver 1.4,2013-03-23 18:07:00,
2013-03-23 13:12:00,27.7,15.8,30.13,NNW,332,1.3,8.8,60,0.00,,,0.00,CWS Microserver 1.4,2013-03-23 18:12:00,
2013-03-23 13:17:00,27.7,14.5,30.13,NNE,12,8.1,10.1,57,0.00,,,0.00,CWS Microserver 1.4,2013-03-23 18:17:00,
2013-03-23 13:22:00,27.7,14.6,30.13,NE,38,5.3,11.0,57,0.00,,,0.00,CWS Microserver 1.4,2013-03-23 18:22:00,
2013-03-23 13:27:00,27.7,15.2,30.12,NNE,30,11.5,11.8,58,0.00,,,0.00,CWS Microserver 1.4,2013-03-23 18:27:00,
2013-03-23 13:32:00,27.9,13.9,30.12,NNE,22,8.1,12.3,55,0.00,,,0.00,CWS Microserver 1.4,2013-03-23 18:32:00,
2013-03-23 13:37:00,28.1,15.5,30.12,NE,41,4.2,12.7,58,0.00,,,0.00,CWS Microserver 1.4,2013-03-23 18:37:00,
2013-03-23 13:47:00,28.1,14.6,30.12,NE,44,9.0,12.3,56,0.00,,,0.00,CWS Microserver 1.4,2013-03-23 18:47:00,
2013-03-23 13:52:00,28.3,14.8,30.12,NNE,28,4.4,12.2,56,0.00,,,0.00,CWS Microserver 1.4,2013-03-23 18:52:00,
2013-03-23 13:57:00,28.1,14.3,30.12,ENE,78,3.1,9.5,55,0.00,,,0.00,CWS Microserver 1.4,2013-03-23 18:57:00,
2013-03-23 14:02:00,28.4,14.2,30.12,NNE,27,7.9,9.3,54,0.00,,,0.00,CWS Microserver 1.4,2013-03-23 19:02:00,
2013-03-23 14:12:00,28.4,14.4,30.12,NE,47,5.8,9.4,55,0.00,,,0.00,CWS Microserver 1.4,2013-03-23 19:12:00,
2013-03-23 14:17:00,29.0,15.4,30.11,NNE,30,6.8,9.4,56,0.00,,,0.00,CWS Microserver 1.4,2013-03-23 19:17:00,
2013-03-23 14:22:00,28.8,15.7,30.11,NNE,33,3.9,9.1,57,0.00,,,0.00,CWS Microserver 1.4,2013-03-23 19:22:00,
2013-03-23 14:27:00,29.2,15.2,30.11,NNE,12,1.9,9.3,55,0.00,,,0.00,CWS Microserver 1.4,2013-03-23 19:27:00,
2013-03-23 14:32:00,29.2,15.4,30.11,North,355,5.0,9.6,56,0.00,,,0.00,CWS Microserver 1.4,2013-03-23 19:32:00,
2013-03-23 14:37:00,29.2,15.2,30.10,North,354,8.3,10.6,55,0.00,,,0.00,CWS Microserver 1.4,2013-03-23 19:37:00,
2013-03-23 14:42:00,29.2,16.3,30.10,North,358,5.8,11.7,58,0.00,,,0.00,CWS Microserver 1.4,2013-03-23 19:42:00,
2013-03-23 14:47:00,29.2,15.3,30.10,NNE,14,9.3,12.8,55,0.00,,,0.00,CWS Microserver 1.4,2013-03-23 19:47:00,
2013-03-23 14:52:00,29.5,15.9,30.09,NNE,12,11.7,12.8,56,0.00,,,0.00,CWS Microserver 1.4,2013-03-23 19:52:00,
2013-03-23 14:57:00,29.0,16.0,30.10,NNE,21,8.0,12.5,57,0.00,,,0.00,CWS Microserver 1.4,2013-03-23 19:57:00,
2013-03-23 15:07:00,29.2,16.5,30.10,NNE,20,6.3,13.0,58,0.00,,,0.00,CWS Microserver 1.4,2013-03-23 20:07:00,
2013-03-23 15:12:00,29.9,16.2,30.10,NNW,338,4.2,10.7,56,0.00,,,0.00,CWS Microserver 1.4,2013-03-23 20:12:00,
2013-03-23 15:17:00,29.9,16.1,30.10,NNW,327,6.5,10.7,56,0.00,,,0.00,CWS Microserver 1.4,2013-03-23 20:17:00,
2013-03-23 15:22:00,30.1,16.0,30.10,NNW,334,4.4,9.2,55,0.00,,,0.00,CWS Microserver 1.4,2013-03-23 20:22:00,
2013-03-23 15:27:00,30.1,15.9,30.11,NNW,346,5.7,9.2,55,0.00,,,0.00,CWS Microserver 1.4,2013-03-23 20:27:00,
2013-03-23 15:32:00,29.5,15.2,30.11,NE,40,6.1,9.2,54,0.00,,,0.00,CWS Microserver 1.4,2013-03-23 20:32:00,
2013-03-23 15:37:00,29.7,16.1,30.10,WNW,297,6.6,8.4,56,0.00,,,0.00,CWS Microserver 1.4,2013-03-23 20:37:00,
2013-03-23 15:42:00,30.2,17.0,30.10,NNW,335,6.5,8.6,57,0.00,,,0.00,CWS Microserver 1.4,2013-03-23 20:42:00,
2013-03-23 15:47:00,30.1,16.9,30.10,NNW,341,6.8,8.9,57,0.00,,,0.00,CWS Microserver 1.4,2013-03-23 20:47:00,
2013-03-23 15:52:00,29.9,16.6,30.10,NW,319,7.5,9.1,57,0.00,,,0.00,CWS Microserver 1.4,2013-03-23 20:52:00,
2013-03-23 15:57:00,29.7,16.8,30.10,North,351,9.2,13.0,58,0.00,,,0.00,CWS Microserver 1.4,2013-03-23 20:57:00,
2013-03-23 16:02:00,29.9,17.3,30.09,North,359,9.3,13.0,59,0.00,,,0.00,CWS Microserver 1.4,2013-03-23 21:02:00,
2013-03-23 16:07:00,29.7,16.9,30.09,North,10,8.2,13.3,58,0.00,,,0.00,CWS Microserver 1.4,2013-03-23 21:07:00,
2013-03-23 16:12:00,30.2,16.9,30.08,NNW,342,8.1,15.3,57,0.00,,,0.00,CWS Microserver 1.4,2013-03-23 21:12:00,
2013-03-23 16:17:00,30.1,16.2,30.08,NNW,348,9.7,15.3,55,0.00,,,0.00,CWS Microserver 1.4,2013-03-23 21:17:00,
2013-03-23 16:22:00,30.4,16.9,30.08,NNW,336,11.4,15.3,56,0.00,,,0.00,CWS Microserver 1.4,2013-03-23 21:22:00,
2013-03-23 16:27:00,30.1,17.1,30.08,North,10,9.6,15.2,57,0.00,,,0.00,CWS Microserver 1.4,2013-03-23 21:27:00,
2013-03-23 16:32:00,29.9,17.7,30.08,NNE,21,12.6,19.4,60,0.00,,,0.00,CWS Microserver 1.4,2013-03-23 21:32:00,
2013-03-23 16:37:00,29.9,19.2,30.08,North,11,11.1,19.4,64,0.00,,,0.00,CWS Microserver 1.4,2013-03-23 21:37:00,
2013-03-23 16:42:00,30.2,17.1,30.08,North,4,9.3,17.9,57,0.00,,,0.00,CWS Microserver 1.4,2013-03-23 21:42:00,
2013-03-23 16:47:00,30.1,17.3,30.09,NNW,344,9.3,15.6,58,0.00,,,0.00,CWS Microserver 1.4,2013-03-23 21:47:00,
2013-03-23 16:52:00,29.9,18.9,30.08,NNE,13,10.3,16.1,63,0.00,,,0.00,CWS Microserver 1.4,2013-03-23 21:52:00,
2013-03-23 16:57:00,30.1,18.9,30.08,NNE,13,11.7,16.1,62,0.00,,,0.00,CWS Microserver 1.4,2013-03-23 21:57:00,
2013-03-23 17:02:00,30.1,17.6,30.08,NNE,29,14.2,15.5,59,0.00,,,0.00,CWS Microserver 1.4,2013-03-23 22:02:00,
2013-03-23 17:07:00,29.9,17.8,30.09,North,9,9.1,15.5,60,0.00,,,0.00,CWS Microserver 1.4,2013-03-23 22:07:00,
2013-03-23 17:17:00,29.9,17.0,30.09,NNE,19,11.9,14.4,58,0.00,,,0.00,CWS Microserver 1.4,2013-03-23 22:17:00,
2013-03-23 17:22:00,30.1,17.5,30.09,NNW,337,8.1,14.3,58,0.00,,,0.00,CWS Microserver 1.4,2013-03-23 22:22:00,
2013-03-23 17:27:00,29.9,17.5,30.10,NNW,338,9.4,14.7,59,0.00,,,0.00,CWS Microserver 1.4,2013-03-23 22:27:00,
2013-03-23 17:37:00,29.5,17.7,30.10,NNW,340,10.9,17.0,60,0.00,,,0.00,CWS Microserver 1.4,2013-03-23 22:37:00,
2013-03-23 17:42:00,29.3,17.9,30.10,North,8,9.6,15.5,62,0.00,,,0.00,CWS Microserver 1.4,2013-03-23 22:42:00,
2013-03-23 17:47:00,29.3,17.4,30.10,North,9,9.7,15.6,60,0.00,,,0.00,CWS Microserver 1.4,2013-03-23 22:47:00,
2013-03-23 17:57:00,29.0,18.0,30.10,North,7,7.8,15.7,63,0.00,,,0.00,CWS Microserver 1.4,2013-03-23 22:57:00,
2013-03-23 18:02:00,29.2,18.2,30.10,North,357,9.8,14.8,63,0.00,,,0.00,CWS Microserver 1.4,2013-03-23 23:02:00,
2013-03-23 18:07:00,29.0,18.0,30.10,North,3,10.1,13.0,63,0.00,,,0.00,CWS Microserver 1.4,2013-03-23 23:07:00,
2013-03-23 18:12:00,28.6,17.6,30.10,NNW,347,7.1,14.8,63,0.00,,,0.00,CWS Microserver 1.4,2013-03-23 23:12:00,
2013-03-23 18:17:00,28.4,17.4,30.10,North,7,10.7,14.8,62,0.00,,,0.00,CWS Microserver 1.4,2013-03-23 23:17:00,
2013-03-23 18:27:00,28.3,17.9,30.10,North,351,8.9,16.2,64,0.00,,,0.00,CWS Microserver 1.4,2013-03-23 23:27:00,
2013-03-23 18:32:00,28.3,17.3,30.10,North,2,14.4,16.2,62,0.00,,,0.00,CWS Microserver 1.4,2013-03-23 23:32:00,
2013-03-23 18:42:00,27.9,17.0,30.10,North,351,8.9,16.3,63,0.00,,,0.00,CWS Microserver 1.4,2013-03-23 23:42:00,
2013-03-23 18:47:00,27.9,17.2,30.11,North,353,9.4,16.3,63,0.00,,,0.00,CWS Microserver 1.4,2013-03-23 23:47:00,
2013-03-23 18:52:00,27.9,17.3,30.11,North,4,8.4,15.3,63,0.00,,,0.00,CWS Microserver 1.4,2013-03-23 23:52:00,
2013-03-23 18:57:00,27.7,17.3,30.10,North,6,10.9,15.5,64,0.00,,,0.00,CWS Microserver 1.4,2013-03-23 23:57:00,
2013-03-23 19:02:00,27.5,16.9,30.10,NNW,346,9.6,15.6,64,0.00,,,0.00,CWS Microserver 1.4,2013-03-24 00:02:00,
2013-03-23 19:07:00,27.5,17.1,30.11,North,352,10.6,15.8,64,0.00,,,0.00,CWS Microserver 1.4,2013-03-24 00:07:00,
2013-03-23 19:12:00,27.4,17.6,30.11,North,8,7.3,15.8,66,0.00,,,0.00,CWS Microserver 1.4,2013-03-24 00:12:00,
2013-03-23 19:17:00,27.4,17.3,30.11,North,8,12.0,15.5,65,0.00,,,0.00,CWS Microserver 1.4,2013-03-24 00:17:00,
2013-03-23 19:22:00,27.2,18.0,30.11,North,351,8.7,14.2,67,0.00,,,0.00,CWS Microserver 1.4,2013-03-24 00:22:00,
2013-03-23 19:32:00,27.0,18.0,30.11,North,353,7.9,15.3,68,0.00,,,0.00,CWS Microserver 1.4,2013-03-24 00:32:00,
2013-03-23 19:37:00,26.8,17.4,30.11,North,349,11.2,13.5,67,0.00,,,0.00,CWS Microserver 1.4,2013-03-24 00:37:00,
2013-03-23 19:42:00,26.6,17.3,30.11,NNW,340,14.1,14.8,67,0.00,,,0.00,CWS Microserver 1.4,2013-03-24 00:42:00,
2013-03-23 19:47:00,26.6,17.7,30.11,North,352,7.6,14.8,68,0.00,,,0.00,CWS Microserver 1.4,2013-03-24 00:47:00,
2013-03-23 19:52:00,26.6,17.1,30.11,North,355,11.6,14.4,66,0.00,,,0.00,CWS Microserver 1.4,2013-03-24 00:52:00,
2013-03-23 20:02:00,26.5,17.3,30.11,North,2,6.5,13.0,67,0.00,,,0.00,CWS Microserver 1.4,2013-03-24 01:02:00,
2013-03-23 20:07:00,26.5,17.9,30.11,North,5,12.1,14.8,69,0.00,,,0.00,CWS Microserver 1.4,2013-03-24 01:07:00,
2013-03-23 20:12:00,26.3,17.7,30.11,North,352,8.6,14.8,69,0.00,,,0.00,CWS Microserver 1.4,2013-03-24 01:12:00,
2013-03-23 20:17:00,26.3,17.8,30.11,NNW,348,6.2,15.7,69,0.00,,,0.00,CWS Microserver 1.4,2013-03-24 01:17:00,
2013-03-23 20:22:00,26.1,16.5,30.11,North,0,8.3,15.7,66,0.00,,,0.00,CWS Microserver 1.4,2013-03-24 01:22:00,
2013-03-23 20:27:00,26.1,15.9,30.11,North,358,14.6,17.8,64,0.00,,,0.00,CWS Microserver 1.4,2013-03-24 01:27:00,
2013-03-23 20:37:00,25.9,16.3,30.11,NW,325,7.6,15.7,66,0.00,,,0.00,CWS Microserver 1.4,2013-03-24 01:37:00,
2013-03-23 20:42:00,25.7,16.2,30.11,NNW,340,10.7,15.7,66,0.00,,,0.00,CWS Microserver 1.4,2013-03-24 01:42:00,
2013-03-23 20:47:00,25.7,16.7,30.12,NNW,344,10.1,15.7,68,0.00,,,0.00,CWS Microserver 1.4,2013-03-24 01:47:00,
2013-03-23 20:52:00,25.7,16.4,30.12,NNW,348,11.4,14.7,67,0.00,,,0.00,CWS Microserver 1.4,2013-03-24 01:52:00,
2013-03-23 20:57:00,25.7,16.7,30.12,NNW,348,12.0,14.7,68,0.00,,,0.00,CWS Microserver 1.4,2013-03-24 01:57:00,
2013-03-23 21:02:00,25.7,17.3,30.12,North,357,5.7,13.3,70,0.00,,,0.00,CWS Microserver 1.4,2013-03-24 02:02:00,
2013-03-23 21:07:00,25.6,17.3,30.12,North,351,6.8,14.7,70,0.00,,,0.00,CWS Microserver 1.4,2013-03-24 02:07:00,
2013-03-23 21:12:00,25.6,17.8,30.12,NNW,340,10.0,14.7,71,0.00,,,0.00,CWS Microserver 1.4,2013-03-24 02:12:00,
2013-03-23 21:17:00,25.6,17.9,30.12,NNW,347,10.3,14.4,72,0.00,,,0.00,CWS Microserver 1.4,2013-03-24 02:17:00,
2013-03-23 21:22:00,25.6,16.9,30.12,North,358,6.3,14.4,69,0.00,,,0.00,CWS Microserver 1.4,2013-03-24 02:22:00,
2013-03-23 21:27:00,25.6,17.6,30.12,NNW,334,8.5,14.2,71,0.00,,,0.00,CWS Microserver 1.4,2013-03-24 02:27:00,
2013-03-23 21:32:00,25.4,17.0,30.12,NNW,337,7.4,16.4,70,0.00,,,0.00,CWS Microserver 1.4,2013-03-24 02:32:00,
2013-03-23 21:37:00,25.2,16.2,30.12,North,1,10.8,16.4,68,0.00,,,0.00,CWS Microserver 1.4,2013-03-24 02:37:00,
2013-03-23 21:42:00,25.4,16.4,30.12,NNW,347,8.5,14.5,68,0.00,,,0.00,CWS Microserver 1.4,2013-03-24 02:42:00,
2013-03-23 21:47:00,25.4,16.9,30.13,NNW,335,10.7,15.6,69,0.00,,,0.00,CWS Microserver 1.4,2013-03-24 02:47:00,
2013-03-23 21:52:00,25.2,17.0,30.13,NNW,341,6.6,15.6,70,0.00,,,0.00,CWS Microserver 1.4,2013-03-24 02:52:00,
2013-03-23 21:57:00,25.2,16.9,30.12,North,358,9.0,14.2,70,0.00,,,0.00,CWS Microserver 1.4,2013-03-24 02:57:00,
2013-03-23 22:02:00,25.2,16.9,30.12,NNW,343,6.3,12.7,70,0.00,,,0.00,CWS Microserver 1.4,2013-03-24 03:02:00,
2013-03-23 22:07:00,25.0,17.2,30.12,NNW,333,8.4,12.3,71,0.00,,,0.00,CWS Microserver 1.4,2013-03-24 03:07:00,
2013-03-23 22:12:00,24.8,17.2,30.12,NNW,342,10.6,12.3,72,0.00,,,0.00,CWS Microserver 1.4,2013-03-24 03:12:00,
2013-03-23 22:17:00,24.7,16.2,30.13,North,359,5.4,16.2,69,0.00,,,0.00,CWS Microserver 1.4,2013-03-24 03:17:00,
2013-03-23 22:22:00,24.7,16.3,30.13,NNW,335,8.7,16.2,70,0.00,,,0.00,CWS Microserver 1.4,2013-03-24 03:22:00,
2013-03-23 22:27:00,24.7,16.7,30.13,North,355,8.0,12.5,71,0.00,,,0.00,CWS Microserver 1.4,2013-03-24 03:27:00,
2013-03-23 22:32:00,24.7,16.8,30.13,NNW,343,7.2,12.5,71,0.00,,,0.00,CWS Microserver 1.4,2013-03-24 03:32:00,
2013-03-23 22:37:00,24.5,16.6,30.13,North,10,9.2,11.5,71,0.00,,,0.00,CWS Microserver 1.4,2013-03-24 03:37:00,
2013-03-23 22:42:00,24.5,16.3,30.13,NNE,16,6.9,13.6,70,0.00,,,0.00,CWS Microserver 1.4,2013-03-24 03:42:00,
2013-03-23 22:47:00,24.3,16.7,30.13,North,350,5.2,14.7,72,0.00,,,0.00,CWS Microserver 1.4,2013-03-24 03:47:00,
2013-03-23 22:52:00,24.3,16.3,30.13,North,355,8.2,14.7,71,0.00,,,0.00,CWS Microserver 1.4,2013-03-24 03:52:00,
2013-03-23 23:02:00,24.1,15.7,30.13,North,359,9.9,15.7,69,0.00,,,0.00,CWS Microserver 1.4,2013-03-24 04:02:00,
2013-03-23 23:07:00,24.1,16.4,30.13,NNW,334,6.8,15.7,71,0.00,,,0.00,CWS Microserver 1.4,2013-03-24 04:07:00,
2013-03-23 23:17:00,23.9,16.2,30.13,North,0,8.8,14.6,72,0.00,,,0.00,CWS Microserver 1.4,2013-03-24 04:17:00,
2013-03-23 23:22:00,23.9,16.0,30.13,NNW,336,10.1,15.2,71,0.00,,,0.00,CWS Microserver 1.4,2013-03-24 04:22:00,
2013-03-23 23:27:00,23.9,16.8,30.12,NNW,341,6.0,15.2,73,0.00,,,0.00,CWS Microserver 1.4,2013-03-24 04:27:00,
2013-03-23 23:32:00,23.8,16.8,30.12,NNW,331,6.6,14.5,74,0.00,,,0.00,CWS Microserver 1.4,2013-03-24 04:32:00,
2013-03-23 23:37:00,23.8,16.8,30.12,NNW,344,5.4,13.0,74,0.00,,,0.00,CWS Microserver 1.4,2013-03-24 04:37:00,
2013-03-23 23:42:00,23.6,16.3,30.12,NNW,339,6.2,13.3,73,0.00,,,0.00,CWS Microserver 1.4,2013-03-24 04:42:00,
2013-03-23 23:47:00,23.6,16.0,30.12,NNW,343,7.8,14.3,72,0.00,,,0.00,CWS Microserver 1.4,2013-03-24 04:47:00,
2013-03-23 23:52:00,23.6,15.8,30.11,NNW,342,11.2,15.4,71,0.00,,,0.00,CWS Microserver 1.4,2013-03-24 04:52:00,
2013-03-23 23:57:00,23.4,15.6,30.11,NNW,340,9.4,16.1,71,0.00,,,0.00,CWS Microserver 1.4,2013-03-24 04:57:00,